Regional Weather Roundup
Issued by NWS

Home | Current Version | Previous Version | Graphics & Text | Print | Product List | Glossary On
Versions: 1 2 3 4 5 6 7 8 9 10 11 12 13 14 15 16 17 18 19 20 21 22 23 24 25 26 27 28 29 30 31 32 33 34 35 36 37 38 39 40 41 42 43 44 45 46 47 48 49 50
000
ASUS43 KDMX 242001
RWRIA

WEATHER ROUNDUP FOR IOWA
NATIONAL WEATHER SERVICE DES MOINES IA
200 PM CST FRI NOV 24 2017

NOTE: "FAIR" INDICATES FEW OR NO CLOUDS BELOW 12,000 FEET WITH NO
SIGNIFICANT WEATHER AND/OR OBSTRUCTIONS TO VISIBILITY.

* - THESE STATIONS ARE NOT NWS STATIONS...THUS NOT UNDER NWS
QUALITY CONTROL.  THEY ALSO DO NOT REPORT WEATHER SUCH
AS PRECIPITATION OR FOG.

IAZ001>003-012>014-020>022-031>034-043>046-242100-
   NORTHWEST IOWA

CITY           SKY/WX    TMP DP  RH WIND       PRES   REMARKS
CARROLL *      SUNNY     66  41  39 N32G41    29.52R
CHEROKEE *     SUNNY     66  37  34 NW21G37   29.54S
DENISON *      SUNNY     64  41  42 N21G33    29.57R
LE MARS *      MOSUNNY   66  37  34 NW25G37   29.54F
ORANGE CITY *  SUNNY     66  39  37 NW23G33   29.53S
SHELDON *      MOSUNNY   64  36  34 NW31G39   29.50S
SIOUX CITY     SUNNY     68  39  34 N30G38    29.55R
SPENCER        PTSUNNY   64  36  35 NW30G49   29.51R
STORM LAKE *   SUNNY     64  39  39 NW30G39   29.53R
$$

IAZ055>058-069>071-079>083-090>094-242100-
   SOUTHWEST IOWA

CITY           SKY/WX    TMP DP  RH WIND       PRES   REMARKS
ATLANTIC *     SUNNY     68  41  37 NW28G38   29.53R
AUDUBON *      SUNNY     64  41  42 NW16G29   29.55R
CLARINDA *     SUNNY     73  43  33 W16         N/A
COUNCIL BLFS * SUNNY     66  41  39 N28G37    29.56R
CRESTON *      SUNNY     70  41  35 W26G37    29.51R
HARLAN  *      SUNNY     66  41  39 N36G45    29.57R
LAMONI         SUNNY     72  41  32 SW16G26   29.47S
RED OAK *      SUNNY     72  41  33 NW18G30   29.54R
SHENANDOAH *   SUNNY     73  41  31 NW22G28   29.54R
$$

IAZ047>049-059>061-072>074-084-242100-
   CENTRAL IOWA

CITY           SKY/WX    TMP DP  RH WIND       PRES   REMARKS
AMES           SUNNY     68  43  40 W21G31    29.46R
ANKENY *       SUNNY     68  41  37 W22       29.47R
BOONE *        SUNNY     66  43  42 W23G32    29.46R
CHARITON *     SUNNY     70  41  35 SW18G28   29.46R
DES MOINES     MOSUNNY   70  41  34 W20G29    29.46R
GRINNELL*      SUNNY     68  39  33 SW21G28   29.44R
KNOXVILLE *    SUNNY     72  39  30 W18G28    29.43R
MARSHALLTOWN   SUNNY     67  42  40 W23G30    29.44R HAZE
NEWTON *       SUNNY     70  41  35 W15G24    29.45R
PELLA *        SUNNY     71  38  30 SW12G21   29.44S
PERRY *          N/A     65  37  34 NW24G32   29.50R
$$

IAZ004>006-015-016-023>025-035-036-242100-
   NORTH CENTRAL IOWA

CITY           SKY/WX    TMP DP  RH WIND       PRES   REMARKS
ALGONA *       SUNNY     64  41  42 NW26G38   29.49R
CLARION *      SUNNY     64  43  45 N24G36    29.46R
ESTHERVILLE    CLOUDY    64  38  38 NW33G44   29.49R
FORT DODGE *   SUNNY     65  41  41 N15G25    29.50R
MASON CITY     SUNNY     63  40  42 N28G43    29.45R
FOREST CITY *    N/A     64  41  42 N25G36    29.45R
WEBSTER CITY * SUNNY     66  41  39 NW24G37   29.46R
IOWA FALLS *     N/A     66  43  42 W31G37    29.45R
$$

IAZ007>011-017>019-026>030-037>042-050>054-066-242100-
   NORTHEAST IOWA

CITY           SKY/WX    TMP DP  RH WIND       PRES   REMARKS
CEDAR RAPIDS   SUNNY     70  39  32 SW21G30   29.39R
CHARLES CITY * SUNNY     63  41  45 W21G26    29.42R
CLINTON *      SUNNY     70  40  33 SW24G33   29.41F
DECORAH *      SUNNY     63  41  45 W12G20    29.38R
DUBUQUE        SUNNY     67  39  35 SW21G26   29.37F
MONTICELLO *   SUNNY     70  39  32 SW16G28   29.37F
OELWEIN *      SUNNY     64  41  42 W21       29.39S
WATERLOO       SUNNY     66  40  38 W14G22    29.41R
$$

IAZ064-065-067-068-078-242100-
   EAST CENTRAL IOWA

CITY           SKY/WX    TMP DP  RH WIND       PRES   REMARKS
DAVENPORT      SUNNY     68  38  33 S21G32    29.44F
IOWA CITY      SUNNY     73  40  30 SW20G29   29.41F
MT. PLEASANT * SUNNY     72  37  27 S23G30    29.45S
MUSCATINE *    SUNNY     73  39  29 SW18G32   29.42S
QUAD CITIES    SUNNY     71  38  29 SW21G33   29.41F
$$

IAZ062-063-075>077-085>089-095>099-242100-
   SOUTHEAST IOWA

CITY           SKY/WX    TMP DP  RH WIND       PRES   REMARKS
BURLINGTON     SUNNY     72  40  31 SW22G28   29.45F
FAIRFIELD *    SUNNY     72  37  28 SW26G33   29.43S
FORT MADISON * SUNNY     72  39  30 S21G26    29.47F
KEOKUK *       SUNNY     73  37  27 SW26G37   29.47F
OSKALOOSA *      N/A     70  39  32 SW23G32   29.42F
OTTUMWA        SUNNY     71  39  31 SW17      29.44S
WASHINGTON *   SUNNY     72  39  30 SW23G30   29.42F
$$

ABBREVIATIONS USED IN REMARKS
   TC - TEMPERATURES IN CELSIUS
  WCI - WIND CHILL INDEX
   HX - HEAT INDEX
  VSB - VISIBILITY
$$





USA.gov is the U.S. government's official web portal to all federal, state and local government web resources and services.